Aurora, CO

12:21 AM MST on February 07, 2016 (GMT -0700)
Denver International

Weather History for KDEN - December, 2012

Change the Weather History Date:

Thursday, December 13, 2012

  Actual Average Record
Temperature  
Mean Temperature 43 °F 30 °F  
Max Temperature 56 °F 42 °F 72 °F (1921)
Min Temperature 29 °F 17 °F -12 °F (1961)
Degree Days  
Heating Degree Days 22 35  
Month to date heating degree days 342 447  
Since 1 July heating degree days 1537 1829  
Cooling Degree Days 0 0  
Month to date cooling degree days 0 0  
Year to date cooling degree days 1236 769  
Moisture  
Dew Point 11 °F    
Average Humidity 32    
Maximum Humidity 51    
Minimum Humidity 12    
Precipitation  
Precipitation 0.00 in 0.02 in 0.29 in (1951)
Month to date precipitation 0.05 0.16  
Year to date precipitation 9.89 14.11  
Snow  
Snow 0.00 in - - ()
Month to date snowfall 0.9  
Since 1 July snowfall 8.1  
Snow Depth 0.00 in    
Sea Level Pressure  
Sea Level Pressure 29.88 in    
Wind  
Wind Speed 8 mph (SSW)    
Max Wind Speed 17 mph    
Max Gust Speed 21 mph    
Visibility 10 miles    
Events      
T = Trace of Precipitation, MM = Missing Value Source: NWS Daily Summary

Daily Weather History Graph

Daily Weather History Graph

Search for Another Location

Airport or City:

Trip Planner

Search our weather history database for the weather conditions in past years. The results will help you decide how hot, cold, wet, or windy it might be!

Date:

Astronomy

Dec. 13, 2012 Rise Set
Actual Time 7:11 AM MST 4:34 PM MST
Civil Twilight 6:41 AM MST 5:04 PM MST
Nautical Twilight 6:07 AM MST 5:38 PM MST
Astronomical Twilight 5:34 AM MST 6:11 PM MST
Moon 7:22 AM MST (12/13) 5:19 PM MST (12/13)
Length of Visible Light 10h 23m
Length of Day
9h 22m
New Moon, 0% of the Moon is Illuminated
Dec 13
New Moon
Dec 19
First Quarter
Dec 28
Full
Jan 4
Last Quarter
Jan 11
New

Hourly Weather History & Observations

Time (MST) Temp. Windchill Dew Point Humidity Pressure Visibility Wind Dir Wind Speed Gust Speed Precip Events Conditions
12:53 AM 39.0 °F 35.7 °F 10.0 °F 30% 29.79 in 10.0 mi SW 4.6 mph - N/A   Scattered Clouds
1:53 AM 33.1 °F 24.9 °F 12.0 °F 42% 29.81 in 10.0 mi SSW 10.4 mph - N/A   Scattered Clouds
2:53 AM 37.0 °F 29.3 °F 12.0 °F 36% 29.82 in 10.0 mi SSW 11.5 mph - N/A   Scattered Clouds
3:53 AM 39.0 °F 30.6 °F 9.0 °F 29% 29.82 in 10.0 mi SSW 15.0 mph - N/A   Scattered Clouds
4:53 AM 39.9 °F 31.4 °F 8.1 °F 27% 29.84 in 10.0 mi SW 16.1 mph - N/A   Scattered Clouds
5:53 AM 37.0 °F 28.9 °F 8.1 °F 30% 29.89 in 10.0 mi SW 12.7 mph - N/A   Scattered Clouds
6:53 AM 33.1 °F 25.5 °F 10.0 °F 38% 29.94 in 10.0 mi SW 9.2 mph - N/A   Scattered Clouds
7:53 AM 34.0 °F 26.6 °F 10.9 °F 38% 29.95 in 10.0 mi WSW 9.2 mph - N/A   Mostly Cloudy
8:53 AM 41.0 °F 35.2 °F 12.0 °F 31% 29.97 in 10.0 mi SW 9.2 mph - N/A   Mostly Cloudy
9:53 AM 46.0 °F 40.2 °F 10.0 °F 23% 29.95 in 10.0 mi SW 12.7 mph - N/A   Mostly Cloudy
10:53 AM 46.9 °F - 10.9 °F 23% 29.96 in 10.0 mi Calm Calm - N/A   Mostly Cloudy
11:53 AM 51.1 °F - 9.0 °F 18% 29.92 in 10.0 mi Calm Calm - N/A   Mostly Cloudy
12:53 PM 54.0 °F - 6.1 °F 15% 29.86 in 10.0 mi SSW 6.9 mph - N/A   Mostly Cloudy
1:53 PM 55.0 °F - 5.0 °F 13% 29.86 in 10.0 mi SSE 3.5 mph - N/A   Mostly Cloudy
2:53 PM 53.1 °F - 10.9 °F 19% 29.84 in 10.0 mi East 9.2 mph - N/A   Mostly Cloudy
4:53 PM 45.0 °F 41.8 °F 12.9 °F 27% 29.86 in 10.0 mi SE 5.8 mph - N/A   Mostly Cloudy
5:53 PM 39.2 °F 37.0 °F 12.2 °F 33% 29.92 in 10.0 mi West 3.5 mph - N/A   Mostly Cloudy
6:53 PM 33.1 °F 27.7 °F 17.1 °F 52% 29.94 in 10.0 mi WSW 5.8 mph - N/A   Mostly Cloudy
7:53 PM 35.1 °F 30.1 °F 16.0 °F 46% 29.92 in 10.0 mi WSW 5.8 mph - N/A   Mostly Cloudy
8:53 PM 33.1 °F 27.7 °F 15.1 °F 48% 29.91 in 10.0 mi SW 5.8 mph - N/A   Mostly Cloudy
9:53 PM 36.0 °F 29.6 °F 15.1 °F 43% 29.87 in 10.0 mi SW 8.1 mph - N/A   Mostly Cloudy
10:53 PM 35.6 °F 27.1 °F 15.8 °F 44% 29.89 in 10.0 mi South 12.7 mph - N/A   Mostly Cloudy
11:53 PM 30.0 °F 21.1 °F 14.0 °F 51% 29.83 in 10.0 mi South 10.4 mph - N/A   Mostly Cloudy